Weather History for KOSU - January, 2012

Change the Weather History Date:

Monday, January 23, 2012

  Actual Average Record
Temperature  
Mean Temperature 47 °F -  
Max Temperature 57 °F 33 °F 63 °F (1999)
Min Temperature 37 °F 17 °F 0 °F (2003)
Degree Days  
Heating Degree Days 18    
Moisture  
Dew Point 40 °F    
Average Humidity 80    
Maximum Humidity 100    
Minimum Humidity 70    
Precipitation  
Precipitation 0.21 in - - ()
Sea Level Pressure  
Sea Level Pressure 29.77 in    
Wind  
Wind Speed 16 mph (SSW)    
Max Wind Speed 28 mph    
Max Gust Speed 39 mph    
Visibility 8 miles    
Events Rain , Thunderstorm    
Averages and records for this station are not official NWS values.
T = Trace of Precipitation, MM = Missing Value Source: NWS Daily Summary

Daily Weather History Graph

Daily Weather History Graph

Search for Another Location

Airport or City:

Trip Planner

Search our weather history database for the weather conditions in past years. The results will help you decide how hot, cold, wet, or windy it might be!

Date:

Astronomy

Jan. 23, 2012 Rise Set
Actual Time 7:48 AM EST 5:39 PM EST
Civil Twilight 7:19 AM EST 6:09 PM EST
Nautical Twilight 6:46 AM EST 6:42 PM EST
Astronomical Twilight 6:14 AM EST 7:14 PM EST
Moon 7:43 AM EST (1/23) 6:26 PM EST (1/23)
Length of Visible Light 10h 50m
Length of Day
9h 51m
New Moon, 0% of the Moon is Illuminated
Jan 23
New Moon
Jan 30
First Quarter
Feb 7
Full
Feb 14
Last Quarter
Feb 21
New

Hourly Weather History & Observations

Time (EST) Temp. Windchill Dew Point Humidity Pressure Visibility Wind Dir Wind Speed Gust Speed Precip Events Conditions
12:53 AM 43.0 °F 36.8 °F 39.0 °F 86% 29.87 in 10.0 mi SE 11.5 mph - N/A   Overcast
1:34 AM 44.6 °F 37.8 °F 39.2 °F 81% 29.81 in 10.0 mi SE 15.0 mph - 0.01 in   Mostly Cloudy
1:53 AM 45.0 °F 37.9 °F 39.9 °F 82% 29.81 in 7.0 mi SE 16.1 mph 23.0 mph 0.01 in Rain Rain
2:53 AM 46.9 °F - 44.1 °F 90% 29.78 in 10.0 mi SSE 16.1 mph 25.3 mph 0.02 in   Mostly Cloudy
3:53 AM 46.0 °F 39.9 °F 45.0 °F 96% 29.74 in 10.0 mi SE 13.8 mph 21.9 mph 0.10 in   Overcast
4:53 AM 48.0 °F - 44.1 °F 86% 29.72 in 7.0 mi South 12.7 mph 21.9 mph 0.00 in Rain Light Rain
5:23 AM 46.4 °F 39.8 °F 42.8 °F 87% 29.81 in 5.0 mi WSW 16.1 mph 28.8 mph 0.03 in Rain Rain
5:27 AM 46.4 °F 40.7 °F 42.8 °F 87% 29.80 in 4.0 mi SW 12.7 mph 25.3 mph 0.03 in Rain , Thunderstorm Rain
5:45 AM 46.4 °F 41.1 °F 42.8 °F 87% 29.78 in 8.0 mi South 11.5 mph - 0.04 in Rain Light Rain
5:53 AM 45.0 °F 39.7 °F 43.0 °F 93% 29.79 in 5.0 mi South 10.4 mph - 0.07 in Rain Rain
6:43 AM 44.6 °F 38.4 °F 44.6 °F 100% 29.75 in 7.0 mi SSE 12.7 mph - 0.01 in Rain Light Rain
8:53 AM 50.0 °F - 46.0 °F 86% 29.64 in 10.0 mi South 16.1 mph - N/A   Clear
9:53 AM 52.0 °F - 48.0 °F 86% 29.64 in 10.0 mi South 19.6 mph 26.5 mph N/A   Clear
10:53 AM 55.0 °F - 48.9 °F 80% 29.63 in 10.0 mi South 21.9 mph 34.5 mph N/A   Partly Cloudy
11:53 AM 55.9 °F - 48.9 °F 77% 29.60 in 10.0 mi South 18.4 mph 28.8 mph N/A   Overcast
12:53 PM 57.0 °F - 48.0 °F 72% 29.58 in 10.0 mi SSW 21.9 mph 35.7 mph N/A   Overcast
1:53 PM 55.9 °F - 48.0 °F 75% 29.57 in 5.0 mi SSW 27.6 mph 39.1 mph 0.00 in Rain Light Rain
2:38 PM 51.8 °F - 46.4 °F 82% 29.61 in 5.0 mi West 21.9 mph 33.4 mph 0.01 in   Haze
2:53 PM 51.1 °F - 45.0 °F 80% 29.63 in 5.0 mi WSW 21.9 mph 35.7 mph 0.01 in   Haze
3:53 PM 50.0 °F - 41.0 °F 71% 29.67 in 10.0 mi WSW 25.3 mph 33.4 mph N/A   Overcast
4:37 PM 46.4 °F 38.5 °F 39.2 °F 76% 29.70 in 9.0 mi WSW 21.9 mph 34.5 mph N/A   Overcast
4:53 PM 46.0 °F 37.8 °F 37.9 °F 73% 29.73 in 7.0 mi West 23.0 mph 34.5 mph N/A   Overcast
5:53 PM 41.0 °F 33.1 °F 35.1 °F 79% 29.80 in 6.0 mi West 15.0 mph 28.8 mph N/A   Haze
6:53 PM 39.0 °F 30.6 °F 30.9 °F 73% 29.86 in 8.0 mi West 15.0 mph 31.1 mph N/A   Overcast
7:08 PM 39.2 °F 31.6 °F 30.2 °F 70% 29.86 in 9.0 mi West 12.7 mph 21.9 mph N/A   Overcast
7:53 PM 39.0 °F 30.3 °F 30.9 °F 73% 29.90 in 9.0 mi WSW 16.1 mph 23.0 mph N/A   Overcast
8:02 PM 39.2 °F 30.8 °F 30.2 °F 70% 29.89 in 9.0 mi WSW 15.0 mph 21.9 mph N/A   Overcast
8:53 PM 39.0 °F 28.8 °F 30.9 °F 73% 29.94 in 8.0 mi West 21.9 mph 32.2 mph N/A   Overcast
9:53 PM 37.0 °F 26.4 °F 28.9 °F 73% 29.96 in 9.0 mi WSW 20.7 mph 34.5 mph N/A   Overcast
10:53 PM 37.0 °F 29.3 °F 28.9 °F 73% 29.97 in 9.0 mi WSW 11.5 mph - N/A   Overcast
11:53 PM 37.0 °F 29.3 °F 28.9 °F 73% 29.97 in 9.0 mi SW 11.5 mph - N/A   Overcast